• In Czech Republic
  • List of Countries
  • For 7 days
  • Water Temperature
  • Satellite Maps
  • Weather Map
  • Weather Widgets
  • user-avatar
    Login

    Hourly Weather Sada

    Today, 17 January, Wednesday

    Time Temperature Precipitation Wind Pressure Humidity
    00:00 +9°C° 0 mm 1 mps 569 mmHg 23%
    01:00 +8°C° 0 mm 1 mps 569 mmHg 23%
    02:00 +8°C° 0 mm 1 mps 568 mmHg 24%
    03:00 +7°C° 0 mm 1 mps 568 mmHg 23%
    04:00 +6°C° 0 mm 1 mps 568 mmHg 24%
    05:00 +6°C° 0 mm 1 mps 567 mmHg 25%
    06:00 +5°C° 0 mm 1 mps 567 mmHg 25%
    07:00 +7°C° 0 mm 1 mps 568 mmHg 25%
    08:00 +9°C° 0 mm 1 mps 569 mmHg 25%
    09:00 +11°C° 0 mm 1 mps 570 mmHg 25%
    10:00 +12°C° 0 mm 1 mps 571 mmHg 24%
    11:00 +14°C° 0 mm 2 mps 571 mmHg 24%
    12:00 +14°C° 0 mm 3 mps 572 mmHg 23%
    13:00 +16°C° 0 mm 3 mps 571 mmHg 26%
    14:00 +15°C° 0 mm 4 mps 571 mmHg 29%
    15:00 +17°C° 0 mm 4 mps 571 mmHg 32%
    16:00 +14°C° 0 mm 4 mps 570 mmHg 38%
    17:00 +13°C° 0 mm 3 mps 570 mmHg 43%
    18:00 +12°C° 0 mm 3 mps 569 mmHg 49%
    19:00 +12°C° 0 mm 2 mps 569 mmHg 54%
    20:00 +12°C° 0 mm 2 mps 569 mmHg 60%
    21:00 +11°C° 0 mm 1 mps 569 mmHg 65%
    22:00 +10°C° 0 mm 1 mps 569 mmHg 67%
    23:00 +10°C° 0 mm 1 mps 569 mmHg 69%

    Tomorrow, 18 January, Thursday

    Time Temperature Precipitation Wind Pressure Humidity
    00:00 +9°C° 0 mm 1 mps 568 mmHg 71%
    01:00 +9°C° 0 mm 1 mps 568 mmHg 69%
    02:00 +8°C° 0 mm 1 mps 567 mmHg 68%
    03:00 +8°C° 0 mm 1 mps 567 mmHg 66%
    04:00 +8°C° 0 mm 1 mps 567 mmHg 64%
    05:00 +7°C° 0 mm 1 mps 567 mmHg 61%
    06:00 +7°C° 0 mm 1 mps 567 mmHg 58%
    07:00 +9°C° 0 mm 1 mps 568 mmHg 50%
    08:00 +10°C° 0 mm 1 mps 569 mmHg 42%
    09:00 +12°C° 0 mm 1 mps 570 mmHg 33%
    10:00 +13°C° 0 mm 1 mps 571 mmHg 31%
    11:00 +15°C° 0 mm 2 mps 571 mmHg 28%
    12:00 +16°C° 0 mm 3 mps 572 mmHg 26%
    13:00 +16°C° 0 mm 3 mps 572 mmHg 28%
    14:00 +17°C° 0 mm 4 mps 571 mmHg 29%
    15:00 +17°C° 0 mm 4 mps 571 mmHg 31%
    16:00 +15°C° 0 mm 4 mps 570 mmHg 37%
    17:00 +13°C° 0 mm 3 mps 570 mmHg 44%
    18:00 +12°C° 0 mm 3 mps 570 mmHg 50%
    19:00 +13°C° 0 mm 2 mps 570 mmHg 55%
    20:00 +12°C° 0 mm 1 mps 570 mmHg 61%
    21:00 +11°C° 0 mm 1 mps 570 mmHg 66%
    22:00 +11°C° 0 mm 1 mps 569 mmHg 68%
    23:00 +10°C° 0 mm 1 mps 569 mmHg 70%

    Day after tomorrow, 19 January, Friday

    Time Temperature Precipitation Wind Pressure Humidity
    00:00 +10°C° 0 mm 1 mps 569 mmHg 72%
    01:00 +9°C° 0 mm 1 mps 568 mmHg 74%
    02:00 +9°C° 0 mm 1 mps 568 mmHg 76%
    03:00 +9°C° 0 mm 1 mps 567 mmHg 78%
    04:00 +8°C° 0 mm 1 mps 567 mmHg 78%
    05:00 +8°C° 0 mm 1 mps 567 mmHg 79%
    06:00 +7°C° 0 mm 1 mps 567 mmHg 79%
    07:00 +9°C° 0 mm 1 mps 568 mmHg 69%
    08:00 +10°C° 0 mm 1 mps 569 mmHg 60%
    09:00 +12°C° 0 mm 2 mps 571 mmHg 50%
    10:00 +13°C° 0 mm 2 mps 571 mmHg 45%
    11:00 +13°C° 0 mm 3 mps 571 mmHg 40%
    12:00 +15°C° 0 mm 4 mps 572 mmHg 35%
    13:00 +15°C° 0 mm 4 mps 571 mmHg 37%
    14:00 +15°C° 0 mm 5 mps 571 mmHg 38%
    15:00 +15°C° 0 mm 5 mps 571 mmHg 39%
    16:00 +14°C° 0 mm 5 mps 570 mmHg 45%
    17:00 +13°C° 0 mm 4 mps 570 mmHg 51%
    18:00 +12°C° 0 mm 3 mps 570 mmHg 57%
    19:00 +12°C° 0 mm 2 mps 570 mmHg 62%
    20:00 +12°C° 0 mm 2 mps 570 mmHg 67%
    21:00 +11°C° 0 mm 1 mps 571 mmHg 72%
    22:00 +11°C° 0 mm 1 mps 570 mmHg 73%
    23:00 +10°C° 0 mm 1 mps 570 mmHg 75%

    20 January, Saturday

    Time Temperature Precipitation Wind Pressure Humidity
    00:00 +10°C° 0 mm 1 mps 570 mmHg 77%
    01:00 +9°C° 0 mm 1 mps 569 mmHg 77%
    02:00 +9°C° 0 mm 1 mps 569 mmHg 78%
    03:00 +8°C° 0 mm 1 mps 568 mmHg 78%
    04:00 +7°C° 0 mm 0 mps 568 mmHg 77%
    05:00 +6°C° 0 mm 0 mps 568 mmHg 77%
    06:00 +6°C° 0 mm 0 mps 568 mmHg 76%
    07:00 +8°C° 0 mm 0 mps 569 mmHg 67%
    08:00 +9°C° 0 mm 0 mps 571 mmHg 58%
    09:00 +11°C° 0 mm 0 mps 572 mmHg 49%
    10:00 +13°C° 0 mm 1 mps 573 mmHg 43%
    11:00 +15°C° 0 mm 1 mps 573 mmHg 38%
    12:00 +16°C° 0 mm 2 mps 573 mmHg 32%
    13:00 +16°C° 0 mm 2 mps 573 mmHg 32%
    14:00 +17°C° 0 mm 3 mps 573 mmHg 32%
    15:00 +17°C° 0 mm 3 mps 572 mmHg 31%
    16:00 +16°C° 0 mm 3 mps 572 mmHg 37%
    17:00 +14°C° 0 mm 3 mps 572 mmHg 42%
    18:00 +14°C° 0 mm 2 mps 572 mmHg 47%
    19:00 +14°C° 0 mm 2 mps 572 mmHg 47%
    20:00 +13°C° 0 mm 2 mps 572 mmHg 48%
    21:00 +12°C° 0 mm 2 mps 572 mmHg 48%
    22:00 +12°C° 0 mm 2 mps 572 mmHg 45%
    23:00 +10°C° 0 mm 2 mps 572 mmHg 43%

    21 January, Sunday

    Time Temperature Precipitation Wind Pressure Humidity
    00:00 +10°C° 0 mm 3 mps 571 mmHg 40%
    01:00 +9°C° 0 mm 3 mps 571 mmHg 39%
    02:00 +9°C° 0 mm 3 mps 570 mmHg 39%
    03:00 +8°C° 0 mm 3 mps 570 mmHg 38%
    04:00 +8°C° 0 mm 3 mps 570 mmHg 38%
    05:00 +7°C° 0 mm 3 mps 570 mmHg 39%
    06:00 +7°C° 0 mm 3 mps 570 mmHg 39%
    07:00 +8°C° 0 mm 3 mps 571 mmHg 35%
    08:00 +9°C° 0 mm 3 mps 572 mmHg 32%
    09:00 +10°C° 0 mm 3 mps 573 mmHg 28%
    10:00 +11°C° 0 mm 3 mps 573 mmHg 26%
    11:00 +13°C° 0 mm 3 mps 573 mmHg 24%
    12:00 +14°C° 0 mm 3 mps 573 mmHg 22%
    13:00 +16°C° 0 mm 3 mps 573 mmHg 22%
    14:00 +16°C° 0 mm 3 mps 573 mmHg 22%
    15:00 +17°C° 0 mm 3 mps 572 mmHg 23%
    16:00 +16°C° 0 mm 3 mps 572 mmHg 28%
    17:00 +15°C° 0 mm 2 mps 572 mmHg 33%
    18:00 +14°C° 0 mm 2 mps 572 mmHg 39%
    19:00 +13°C° 0 mm 2 mps 572 mmHg 40%
    20:00 +12°C° 0 mm 2 mps 572 mmHg 41%
    21:00 +10°C° 0 mm 2 mps 572 mmHg 43%
    22:00 +9°C° 0 mm 2 mps 571 mmHg 41%
    23:00 +10°C° 0 mm 1 mps 571 mmHg 39%

    22 January, Monday

    Time Temperature Precipitation Wind Pressure Humidity
    00:00 +9°C° 0 mm 1 mps 570 mmHg 37%
    01:00 +9°C° 0 mm 1 mps 569 mmHg 36%
    02:00 +8°C° 0 mm 1 mps 569 mmHg 35%
    03:00 +8°C° 0 mm 1 mps 568 mmHg 34%
    04:00 +7°C° 0 mm 1 mps 568 mmHg 36%
    05:00 +7°C° 0 mm 1 mps 568 mmHg 37%
    06:00 +6°C° 0 mm 1 mps 568 mmHg 39%
    07:00 +8°C° 0 mm 1 mps 569 mmHg 35%
    08:00 +10°C° 0 mm 1 mps 571 mmHg 31%
    09:00 +12°C° 0 mm 1 mps 572 mmHg 27%
    10:00 +14°C° 0 mm 1 mps 572 mmHg 24%
    11:00 +15°C° 0 mm 1 mps 572 mmHg 21%
    12:00 +18°C° 0 mm 1 mps 573 mmHg 19%
    13:00 +17°C° 0 mm 2 mps 572 mmHg 19%
    14:00 +18°C° 0 mm 2 mps 572 mmHg 19%
    15:00 +18°C° 0 mm 3 mps 572 mmHg 19%
    16:00 +17°C° 0 mm 2 mps 571 mmHg 24%
    17:00 +16°C° 0 mm 2 mps 571 mmHg 28%
    18:00 +15°C° 0 mm 2 mps 571 mmHg 32%
    19:00 +14°C° 0 mm 1 mps 570 mmHg 37%
    20:00 +13°C° 0 mm 1 mps 570 mmHg 41%
    21:00 +11°C° 0 mm 0 mps 570 mmHg 46%
    22:00 +11°C° 0 mm 0 mps 570 mmHg 46%
    23:00 +10°C° 0 mm 0 mps 569 mmHg 47%
    Show more